Home   Weather   Al Jizah   Past weeks

Flag for Egypt Past Weather in Al Jizah, Egypt — Yesterday and Last 2 Weeks

Now
86 °F

Sunny.


Feels Like: 83 °F
Forecast: 58 / 90 °F
Wind: 12 mph from Northeast

Location: Cairo Airport

Current Time: Apr 28, 2017 at 6:11:07 pm

Latest Report: Apr 28, 2017 at 5:30 pm


Visibility: 10 mi

Pressure: 29.89 "Hg

Humidity: 15%

Dew Point: 34 °F

Location of Al JizahLocation

Past Weather in Al Jizah — Graph

°F

Al Jizah Temperature Yesterday

Maximum temperature yesterday: 91 °F (at 10:00 pm)
Minimum temperature yesterday: 63 °F (at 5:00 am)
Average temperature yesterday: 73 °F

High & Low Weather Summary for the Past Weeks

 TemperatureHumidityPressure
High100 °F (Apr 21, 1:00 pm)100% (Apr 17, 4:00 am)30.12 "Hg (Apr 17, 4:00 am)
Low57 °F (Apr 17, 4:00 am)8% (Apr 21, 1:00 pm)29.68 "Hg (Apr 22, 2:30 pm)
Average74 °F45%30.00 "Hg
* Reported Apr 13 5:00 pm — Apr 28 5:00 pm, Al Jizah, Weather by CustomWeather, © 2017

Note: Actual official high and low records may vary slightly from our data, if they occured in-between our weather recording intervals... More about our weather records

Advertising

Al Jizah Weather History for the Previous 24 Hours

Scroll right to see more
 ConditionsComfort  
Time TempWeatherWind HumidityBarometerVisibility
5:00 pm
Fri, Apr 28
86 °FSunny.8 mph14%29.89 "Hg10 mi
4:30 pm88 °FSunny.8 mph13%29.89 "Hg10 mi
4:00 pm88 °FSunny.6 mph13%29.92 "Hg10 mi
3:00 pm86 °FSunny.7 mph14%29.92 "Hg10 mi
2:00 pm86 °FSunny.14 mph14%29.92 "Hg10 mi
1:30 pm86 °FSunny.14 mph13%29.92 "Hg10 mi
1:00 pm84 °FSunny.14 mph15%29.92 "Hg10 mi
12:30 pm82 °FSunny.14 mph16%29.95 "Hg10 mi
12:00 pm81 °FSunny.14 mph20%29.95 "Hg10 mi
11:30 am81 °FSunny.14 mph20%29.95 "Hg10 mi
11:00 am79 °FSunny.13 mph24%29.98 "Hg10 mi
10:30 am79 °FSunny.13 mph28%29.98 "Hg10 mi
9:30 am73 °FSunny.13 mph33%30.01 "Hg10 mi
9:00 am72 °FSunny.15 mph47%30.01 "Hg10 mi
8:30 am70 °FSunny.15 mph53%30.01 "Hg10 mi
8:00 am68 °FSunny.13 mph56%30.01 "Hg10 mi
7:30 am66 °FClear.12 mph60%29.98 "Hg4 mi
7:00 am66 °FClear.12 mph78%29.98 "Hg4 mi
6:30 am64 °FClear.6 mph78%29.98 "Hg4 mi
6:00 am64 °FClear.9 mph78%29.98 "Hg4 mi
5:00 am64 °FClear.No wind83%29.95 "Hg4 mi
4:30 am64 °FClear.8 mph78%29.95 "Hg10 mi
4:00 am66 °FClear.8 mph73%29.95 "Hg10 mi
3:00 am66 °FClear.8 mph73%29.95 "Hg10 mi
2:30 am66 °FClear.10 mph73%29.95 "Hg10 mi
2:00 am66 °FClear.10 mph73%29.95 "Hg10 mi
1:30 am68 °FClear.12 mph69%29.95 "Hg10 mi
1:00 am68 °FClear.12 mph64%29.95 "Hg10 mi
12:30 am68 °FClear.13 mph60%29.95 "Hg10 mi
12:00 am70 °FClear.13 mph46%29.98 "Hg10 mi
11:30 pm
Thu, Apr 27
70 °FClear.13 mph50%29.98 "Hg10 mi
11:00 pm72 °FClear.13 mph47%29.98 "Hg10 mi
10:30 pm72 °FClear.9 mph47%29.98 "Hg10 mi
10:00 pm91 °FClear.8 mph23%29.98 "Hg10 mi
9:30 pm73 °FClear.10 mph41%30.01 "Hg10 mi
9:00 pm75 °FClear.10 mph47%30.01 "Hg10 mi
8:30 pm75 °FClear.10 mph47%29.98 "Hg10 mi
8:00 pm79 °FClear.12 mph30%29.98 "Hg10 mi
7:30 pm79 °FClear.10 mph32%29.98 "Hg10 mi
7:00 pm81 °FClear.8 mph26%29.95 "Hg10 mi
6:30 pm81 °FClear.8 mph26%29.95 "Hg10 mi
6:00 pm82 °FSunny.8 mph23%29.95 "Hg10 mi
Weather by CustomWeather, © 2017

See weather overviewHow to use our weather pages